Change the Weather History Date:

Wednesday, December 21, 2011

  Actual Average Record
Temperature  
Mean Temperature 28 °F -  
Max Temperature 32 °F 16 °F 44 °F (1979)
Min Temperature 23 °F -1 °F -32 °F (1963)
Degree Days  
Heating Degree Days 38    
Moisture  
Dew Point 21 °F    
Average Humidity 77    
Maximum Humidity 93    
Minimum Humidity 59    
Precipitation  
Precipitation 0.00 in - - ()
Sea Level Pressure  
Sea Level Pressure 29.86 in    
Wind  
Wind Speed 10 mph (NNW)    
Max Wind Speed 20 mph    
Max Gust Speed 24 mph    
Visibility 10 miles    
Events Rain , Snow    
Averages and records for this station are not official NWS values.
T = Trace of Precipitation, MM = Missing Value Source: NWS Daily Summary

Daily Weather History Graph

Daily Weather History Graph

Search for Another Location

Airport or City:

Trip Planner

Search our weather history database for the weather conditions in past years. The results will help you decide how hot, cold, wet, or windy it might be!

Date:

Astronomy

Dec. 21, 2011 Rise Set
Actual Time 8:18 AM CST 4:36 PM CST
Civil Twilight 7:41 AM CST 5:13 PM CST
Nautical Twilight 7:01 AM CST 5:53 PM CST
Astronomical Twilight 6:23 AM CST 6:32 PM CST
Moon 4:47 AM CST (12/21) 2:01 PM CST (12/21)
Length of Visible Light 9h 32m
Length of Day
8h 18m
Waning Crescent, 12% of the Moon is Illuminated
Dec 21
Waning Crescent
Dec 24
New
Jan 1
First Quarter
Jan 9
Full
Jan 16
Last Quarter

Hourly Weather History & Observations

Time (CST) Temp. Windchill Dew Point Humidity Pressure Visibility Wind Dir Wind Speed Gust Speed Precip Events Conditions
12:15 AM 32.0 °F 25.6 °F 26.6 °F 80% 29.56 in 10.0 mi WNW 6.9 mph - N/A   Clear
12:35 AM 32.0 °F 24.8 °F 26.6 °F 80% 29.57 in 10.0 mi NW 8.1 mph - N/A   Clear
12:55 AM 32.0 °F 25.6 °F 26.6 °F 80% 29.58 in 10.0 mi NW 6.9 mph - N/A   Clear
1:15 AM 32.0 °F 24.8 °F 26.6 °F 80% 29.59 in 10.0 mi NW 8.1 mph - N/A   Clear
1:35 AM 32.0 °F 26.4 °F 26.6 °F 80% 29.59 in 10.0 mi NW 5.8 mph - N/A   Clear
1:55 AM 32.0 °F 24.8 °F 26.6 °F 80% 29.59 in 10.0 mi NW 8.1 mph - N/A   Clear
2:15 AM 32.0 °F 24.8 °F 26.6 °F 80% 29.60 in 10.0 mi NW 8.1 mph - N/A   Clear
2:35 AM 32.0 °F 25.6 °F 26.6 °F 80% 29.60 in 10.0 mi NNW 6.9 mph - N/A   Clear
2:55 AM 30.2 °F 23.4 °F 26.6 °F 86% 29.61 in 10.0 mi NW 6.9 mph - N/A   Clear
3:15 AM 32.0 °F 25.6 °F 26.6 °F 80% 29.62 in 10.0 mi NNW 6.9 mph - N/A   Clear
3:35 AM 32.0 °F 25.6 °F 26.6 °F 80% 29.63 in 10.0 mi NNW 6.9 mph - N/A   Partly Cloudy
3:55 AM 32.0 °F 24.8 °F 26.6 °F 80% 29.63 in 10.0 mi NNW 8.1 mph - N/A   Scattered Clouds
4:15 AM 32.0 °F 25.6 °F 26.6 °F 80% 29.64 in 10.0 mi North 6.9 mph - N/A   Overcast
4:35 AM 32.0 °F 24.8 °F 26.6 °F 80% 29.64 in 10.0 mi North 8.1 mph - N/A   Overcast
4:55 AM 32.0 °F 24.8 °F 26.6 °F 80% 29.66 in 10.0 mi North 8.1 mph - N/A   Overcast
5:15 AM 32.0 °F 24.8 °F 26.6 °F 80% 29.66 in 10.0 mi North 8.1 mph - N/A   Overcast
5:35 AM 32.0 °F 24.2 °F 26.6 °F 80% 29.67 in 10.0 mi North 9.2 mph - N/A   Mostly Cloudy
6:15 AM 30.2 °F 22.6 °F 26.6 °F 86% 29.69 in 10.0 mi North 8.1 mph - N/A   Partly Cloudy
6:35 AM 30.2 °F 21.3 °F 26.6 °F 86% 29.70 in 10.0 mi North 10.4 mph - N/A   Clear
6:55 AM 28.4 °F 19.7 °F 26.6 °F 93% 29.70 in 10.0 mi North 9.2 mph - N/A   Clear
7:15 AM 28.4 °F 19.7 °F 26.6 °F 93% 29.71 in 10.0 mi North 9.2 mph - N/A   Clear
7:35 AM 28.4 °F 20.4 °F 24.8 °F 86% 29.72 in 10.0 mi North 8.1 mph - N/A   Clear
7:55 AM 26.6 °F 18.2 °F 24.8 °F 93% 29.73 in 10.0 mi North 8.1 mph - N/A   Partly Cloudy
8:15 AM 26.6 °F 16.8 °F 24.8 °F 93% 29.74 in 10.0 mi North 10.4 mph - N/A   Mostly Cloudy
8:55 AM 28.4 °F 20.4 °F 24.8 °F 86% 29.77 in 10.0 mi North 8.1 mph - N/A   Overcast
9:15 AM 28.4 °F 18.5 °F 26.6 °F 93% 29.78 in 10.0 mi North 11.5 mph - N/A   Overcast
9:35 AM 28.4 °F 19.7 °F 26.6 °F 93% 29.79 in 10.0 mi North 9.2 mph - N/A   Overcast
9:55 AM 28.4 °F 18.5 °F 24.8 °F 86% 29.80 in 10.0 mi North 11.5 mph 17.3 mph N/A   Overcast
10:15 AM 28.4 °F 18.5 °F 24.8 °F 86% 29.82 in 10.0 mi North 11.5 mph 16.1 mph N/A   Overcast
10:35 AM 28.4 °F 17.5 °F 24.8 °F 86% 29.83 in 10.0 mi North 13.8 mph - N/A   Overcast
11:15 AM 30.2 °F 19.8 °F 24.8 °F 80% 29.85 in 10.0 mi North 13.8 mph 18.4 mph N/A   Overcast
11:35 AM 30.2 °F 19.3 °F 24.8 °F 80% 29.86 in 10.0 mi North 15.0 mph - N/A   Overcast
12:15 PM 30.2 °F 20.2 °F 23.0 °F 75% 29.87 in 10.0 mi North 12.7 mph 19.6 mph N/A   Overcast
12:35 PM 30.2 °F 18.9 °F 23.0 °F 75% 29.87 in 10.0 mi North 16.1 mph - N/A   Overcast
1:15 PM 30.2 °F 18.5 °F 19.4 °F 64% 29.89 in 10.0 mi North 17.3 mph - N/A   Overcast
1:35 PM 28.4 °F 16.2 °F 21.2 °F 74% 29.90 in 10.0 mi North 17.3 mph 21.9 mph N/A   Overcast
1:55 PM 28.4 °F 18.0 °F 19.4 °F 69% 29.90 in 10.0 mi North 12.7 mph 19.6 mph N/A   Overcast
2:15 PM 28.4 °F 16.2 °F 19.4 °F 69% 29.91 in 10.0 mi North 17.3 mph 23.0 mph N/A   Overcast
2:35 PM 28.4 °F 15.4 °F 17.6 °F 64% 29.91 in 10.0 mi North 19.6 mph 24.2 mph N/A   Overcast
2:55 PM 28.4 °F 16.6 °F 17.6 °F 64% 29.92 in 10.0 mi North 16.1 mph 23.0 mph N/A   Overcast
3:15 PM 28.4 °F 15.8 °F 17.6 °F 64% 29.94 in 10.0 mi North 18.4 mph 21.9 mph N/A   Overcast
3:35 PM 26.6 °F 14.7 °F 17.6 °F 69% 29.95 in 10.0 mi North 15.0 mph 19.6 mph N/A   Overcast
3:55 PM 26.6 °F 14.7 °F 15.8 °F 64% 29.96 in 10.0 mi North 15.0 mph 20.7 mph N/A   Overcast
4:15 PM 26.6 °F 18.2 °F 15.8 °F 64% 29.97 in 10.0 mi North 8.1 mph - N/A   Overcast
4:35 PM 26.6 °F 18.2 °F 15.8 °F 64% 29.99 in 10.0 mi North 8.1 mph - N/A   Overcast
4:55 PM 26.6 °F 13.4 °F 15.8 °F 64% 30.00 in 10.0 mi North 18.4 mph 23.0 mph N/A   Overcast
5:15 PM 24.8 °F 11.9 °F 14.0 °F 64% 30.01 in 10.0 mi North 16.1 mph 24.2 mph N/A   Overcast
5:35 PM 24.8 °F 12.4 °F 12.2 °F 59% 30.03 in 10.0 mi North 15.0 mph 21.9 mph N/A   Overcast
5:55 PM 24.8 °F 11.9 °F 12.2 °F 59% 30.04 in 10.0 mi North 16.1 mph 21.9 mph N/A   Overcast
6:35 PM 24.8 °F 14.0 °F 14.0 °F 64% 30.06 in 10.0 mi North 11.5 mph 20.7 mph N/A   Overcast
6:55 PM 24.8 °F 12.4 °F 14.0 °F 64% 30.08 in 10.0 mi North 15.0 mph 21.9 mph N/A   Overcast
7:15 PM 24.8 °F 12.9 °F 14.0 °F 64% 30.08 in 10.0 mi North 13.8 mph 20.7 mph N/A   Mostly Cloudy
7:35 PM 24.8 °F 14.0 °F 14.0 °F 64% 30.09 in 10.0 mi North 11.5 mph - N/A   Overcast
7:55 PM 23.0 °F 11.7 °F 15.8 °F 74% 30.10 in 10.0 mi NNW 11.5 mph - N/A   Overcast
8:15 PM 23.0 °F 13.9 °F 15.8 °F 74% 30.11 in 10.0 mi NNW 8.1 mph - N/A   Overcast
8:35 PM 23.0 °F 13.1 °F 15.8 °F 74% 30.12 in 10.0 mi North 9.2 mph - N/A   Overcast
8:55 PM 23.0 °F 13.1 °F 15.8 °F 74% 30.13 in 10.0 mi North 9.2 mph - N/A Rain Light Freezing Rain
9:15 PM 23.0 °F 13.1 °F 15.8 °F 74% 30.13 in 10.0 mi NNW 9.2 mph - N/A   Overcast
9:35 PM 23.0 °F 13.1 °F 15.8 °F 74% 30.14 in 10.0 mi North 9.2 mph - N/A Rain Light Freezing Rain
9:55 PM 23.0 °F 12.4 °F 15.8 °F 74% 30.15 in 8.0 mi North 10.4 mph - N/A Snow Light Snow
10:15 PM 23.0 °F 13.9 °F 15.8 °F 74% 30.15 in 8.0 mi NNW 8.1 mph - N/A Snow Light Snow
10:35 PM 23.0 °F 14.7 °F 17.6 °F 80% 30.16 in 10.0 mi NNW 6.9 mph - N/A   Overcast
10:55 PM 23.0 °F 15.8 °F 17.6 °F 80% 30.17 in 10.0 mi NNW 5.8 mph - N/A   Overcast
11:15 PM 23.0 °F 15.8 °F 17.6 °F 80% 30.17 in 10.0 mi NW 5.8 mph - N/A   Overcast
11:35 PM 23.0 °F 15.8 °F 17.6 °F 80% 30.18 in 10.0 mi NW 5.8 mph - N/A Rain Light Freezing Rain
11:55 PM 23.0 °F 13.9 °F 17.6 °F 80% 30.19 in 10.0 mi NW 8.1 mph - N/A   Overcast